Weather in Saguny

Russia / Voronezh Oblast     50°35′58″N   39°36′41″E
temp.,
°C
wind,
m/s
gust,
m/s
humid.,
%
clouds,
%
prec.,
mm/h
press.,
hPa
HPBL,
m
16 september, thu
thu1600:00+10nnw22460 0.0 101620
03:00+9nw225296 0.0 101612
06:00+8nw345788 0.0 101675
09:00+13nnw57472 0.0 1017610
12:00+17nnw45365 0.0 10171594
15:00+18n44280 0.0 10171729
18:00+15nne33360 0.0 101739
21:00+11ne12450 0.0 101910
17 september, fri
fri1700:00+9n11500 0.0 101910
03:00+8s005434 0.0 101910
06:00+7ssw1157100 0.0 101910
09:00+13ssw123953 0.0 1018337
12:00+18sw332946 0.0 10171631
15:00+20w232586 0.0 10151970
18:00+17nne353198 0.0 1015112
21:00+15nne5839100 0.0 1016333
18 september, sat
sat1800:00+11ne6964100 0.1 1017383
03:00+11ne4867100 0.1 1018365
06:00+9ene4784100 0.4 1018278
09:00+9e5788100 1.8 1019279
12:00+10e5885100 0.2 1019345
15:00+10e61085100 0.7 1019410
18:00+10e51082100 0.0 1019385
21:00+9e71385100 0.0 1018393
19 september, sun
sun1900:00+10e71479100 0.0 1018449
03:00+10e71475100 0.0 1017458
06:00+10e71372100 0.1 1016440
09:00+10e71368100 0.6 1016561
12:00+9ese81590100 4.4 1014549
15:00+12se61497100 8.3 1013588
18:00+13sse71396100 1.6 1012602
21:00+14sse61395100 2.9 1011549
20 september, mon
mon2000:00+13se61194100 0.9 1011419
03:00+13se4893100 1.0 1010278
06:00+12se3897100 0.1 1009183
09:00+15sse5889100 0.8 1009565
12:00+20s69626 1.0 10081175
15:00+21sw8114382 1.6 10082448
18:00+17sw4955100 0.0 1009345
21:00+13sw366958 0.0 1011140